This is the latest recevied weather packets stored in our database for station/object PA5MB-15. If no packets are shown the sender has not sent any weather packets the latest 10 day(s).
| Time | Temp. | Humidity | Pressure | Rain* | Wind** | Luminosity | Snow |
|---|---|---|---|---|---|---|---|
| 1777716633 | 21.11° C | 66% | 1019.6 hPa | 0 mm | - | 27 W/m² | - |
| 1777716332 | 21.11° C | 65% | 1019.7 hPa | 0 mm | - | 26 W/m² | - |
| 1777716034 | 21.67° C | 64% | 1019.7 hPa | 0 mm | - | 27 W/m² | - |
| 1777715727 | 21.67° C | 64% | 1019.7 hPa | 0 mm | - | 29 W/m² | - |
| 1777715434 | 21.67° C | 64% | 1019.8 hPa | 0 mm | - | 37 W/m² | - |
| 1777715132 | 21.67° C | 64% | 1019.8 hPa | 0 mm | - | 24 W/m² | - |
| 1777714833 | 21.67° C | 63% | 1019.9 hPa | 0 mm | - | 51 W/m² | - |
| 1777714534 | 21.67° C | 63% | 1019.8 hPa | 0 mm | - | 58 W/m² | - |
| 1777714232 | 21.11° C | 64% | 1019.9 hPa | 0 mm | - | 59 W/m² | - |
| 1777713933 | 21.11° C | 66% | 1020 hPa | 0 mm | - | 53 W/m² | - |
| 1777713634 | 21.11° C | 67% | 1020 hPa | 0 mm | - | 49 W/m² | - |
| 1777713334 | 20.56° C | 66% | 1020 hPa | 0 mm | - | 53 W/m² | - |
| 1777713034 | 20° C | 70% | 1020 hPa | 0 mm | - | 50 W/m² | - |
| 1777712723 | 20° C | 70% | 1020.1 hPa | 0 mm | - | 46 W/m² | - |
| 1777712434 | 20° C | 70% | 1020 hPa | 0 mm | - | 44 W/m² | - |
| 1777712135 | 20° C | 70% | 1020 hPa | 0 mm | - | 36 W/m² | - |
| 1777711845 | 19.44° C | 71% | 1020 hPa | 0 mm | - | 47 W/m² | - |
| 1777711524 | 18.89° C | 73% | 1020 hPa | 0 mm | - | 28 W/m² | - |
| 1777711222 | 18.33° C | 75% | 1020 hPa | 0 mm | - | 20 W/m² | - |
| 1777710932 | 18.33° C | 75% | 1020 hPa | 0 mm | - | 19 W/m² | - |
| 1777710632 | 18.33° C | 75% | 1019.9 hPa | 0 mm | - | 16 W/m² | - |
| 1777710330 | 17.78° C | 76% | 1019.9 hPa | 0 mm | - | 16 W/m² | - |
| 1777710032 | 17.78° C | 76% | 1020 hPa | 0 mm | - | 16 W/m² | - |
| 1777709736 | 17.78° C | 77% | 1020 hPa | 0 mm | - | 14 W/m² | - |
| 1777709451 | 17.78° C | 76% | 1020 hPa | 0 mm | - | 15 W/m² | - |
* Rain latest hour (hover to see other rain measurements)
** Current wind speed in m/s (hover to see current wind gust speed)